Wind_Speed
13 16 14 3 2 2 3 2 2 4 4 6 15 6 7 5 1 3 19 24 28 29 25 23 23 22 21 21 21 21 20 20 19 19 18 18 17 16 16 15 14 12 11 11 11 11 12 12 13
17 15 4 1 2 0 2 3 4 7 3 7 9 7 5 3 4 12 13 33 31 30 26 25 24 22 20 21 20 19 18 18 18 18 17 15 16 16 15 14 13 11 10 9 11 11 10 11 12
18 8 0 2 2 2 1 5 6 8 7 5 5 8 4 3 12 17 26 35 32 29 27 25 24 22 20 20 19 18 17 18 17 15 15 15 15 15 14 13 12 11 9 8 9 10 9 9 11
10 4 2 1 5 4 3 4 6 6 4 7 8 8 5 6 21 15 37 35 32 30 28 25 23 20 20 20 18 17 16 17 15 15 14 15 14 14 14 13 12 11 10 9 10 11 10 11 11
4 2 2 2 3 3 4 6 10 3 4 4 2 6 8 8 15 35 33 34 33 29 26 24 22 20 20 18 18 17 15 16 16 14 14 13 14 14 13 13 13 12 12 11 12 12 12 12 11
1 0 2 2 4 4 1 2 6 6 5 6 9 9 3 16 31 29 30 34 31 30 26 24 21 20 19 17 18 16 15 15 15 14 14 13 13 14 12 12 12 12 11 12 14 13 12 11 10
1 2 3 1 3 2 5 12 3 5 6 5 12 5 5 14 31 29 29 32 30 28 26 24 21 19 18 16 17 16 15 14 13 13 13 13 14 13 12 11 12 11 12 11 13 13 11 11 10
3 2 2 2 2 2 4 9 3 6 1 11 12 7 9 18 31 30 28 30 28 26 25 25 22 20 19 17 15 15 14 13 13 13 12 12 12 12 11 10 11 11 11 12 11 11 12 10 9
4 1 3 4 5 2 5 5 7 4 10 3 4 7 14 33 32 27 26 25 27 25 25 25 22 21 19 17 15 14 13 12 13 12 11 12 12 12 9 8 8 10 10 9 8 9 8 8 8
3 2 6 7 10 4 2 1 1 3 8 4 8 19 32 34 31 24 23 22 24 23 27 26 23 22 20 18 17 16 14 14 14 12 11 12 10 9 8 7 6 7 7 7 7 6 4 3 4
6 6 7 10 8 11 8 7 5 8 4 7 17 23 27 32 28 22 22 24 26 29 26 27 24 22 21 20 18 17 15 14 13 11 10 10 8 7 8 7 5 4 5 6 6 5 4 2 1
5 11 8 6 11 10 7 6 7 13 5 12 22 27 28 26 22 24 24 25 26 29 30 29 26 24 22 19 19 18 16 15 13 9 12 10 9 8 8 7 6 3 4 4 4 5 5 4 2
16 14 6 14 13 12 5 12 8 20 7 18 22 24 25 22 25 24 26 25 28 29 31 31 28 25 23 20 19 19 17 15 11 10 10 11 9 9 8 7 6 4 4 2 3 4 5 6 6
4 14 16 12 13 6 13 7 6 2 18 20 23 25 23 23 26 24 26 27 29 31 33 32 29 27 24 23 22 20 18 15 12 11 10 9 10 9 7 7 6 3 3 5 1 1 5 8 6
10 11 8 10 12 5 8 4 6 15 18 21 22 21 20 20 25 25 25 30 32 33 35 34 31 28 26 25 24 21 18 15 14 12 12 11 10 8 6 7 6 5 3 4 2 2 5 7 6
3 5 3 9 9 8 10 6 13 20 22 20 20 20 19 21 26 27 26 28 32 33 34 35 33 31 28 27 24 21 18 16 17 18 14 16 14 11 8 8 8 6 4 4 2 1 2 6 6
3 4 6 6 11 6 8 6 17 19 20 22 20 20 19 19 21 27 29 29 34 35 35 36 35 33 31 29 25 20 17 18 15 17 20 18 16 12 10 8 8 8 5 5 4 2 2 6 3
6 4 5 7 5 13 9 3 20 21 20 22 21 20 20 22 24 32 30 32 30 35 36 37 37 35 34 31 26 20 16 13 13 16 20 20 16 14 11 7 7 7 6 6 5 2 2 5 6
4 4 5 5 8 8 12 10 20 22 18 17 20 20 20 22 22 28 33 32 31 33 38 39 39 39 36 34 29 26 23 19 14 12 17 22 19 16 13 9 8 6 5 5 5 5 4 6 8
8 6 6 10 5 5 6 15 20 23 26 25 24 22 21 19 19 24 30 33 33 33 38 40 42 41 40 38 34 33 29 24 18 11 10 21 19 18 15 13 11 8 6 7 5 7 6 10 9
16 15 8 9 5 4 5 7 17 20 9 14 16 21 19 23 23 22 28 35 34 33 38 41 44 42 45 41 36 30 30 25 22 17 14 17 21 19 18 16 13 12 10 8 7 7 6 8 5
18 13 14 13 1 4 5 4 8 15 18 19 20 21 21 23 22 20 24 31 37 36 36 41 43 42 45 42 40 34 29 27 29 26 19 17 18 22 20 18 15 13 11 10 8 10 8 8 9
13 8 9 10 3 3 5 2 6 19 17 23 23 25 23 24 23 24 24 35 39 36 35 40 43 41 41 44 41 39 32 31 30 28 24 18 19 22 23 20 17 17 14 12 10 10 11 9 11
5 6 6 1 2 11 14 8 6 14 21 23 25 26 25 23 24 25 36 34 35 37 36 37 40 43 42 44 43 41 36 33 30 26 27 22 21 23 25 23 20 18 16 14 13 12 13 11 9
10 9 2 5 6 15 8 8 13 17 26 27 29 30 26 22 22 21 22 27 33 36 37 38 40 39 42 44 44 45 43 37 32 30 29 28 26 27 28 27 25 21 18 16 16 15 14 14 13
15 12 6 9 7 12 6 8 6 15 19 28 28 30 21 17 18 24 22 29 34 38 39 40 40 40 41 44 45 45 44 40 36 33 33 29 29 30 28 29 27 24 21 19 18 18 17 17 17
9 21 9 5 2 3 7 5 7 7 15 18 25 21 21 20 19 23 23 30 33 37 41 43 41 42 41 44 43 41 41 39 37 35 33 35 30 28 29 29 30 28 25 22 22 21 21 20 20
15 10 11 4 9 10 3 6 8 11 11 11 20 19 23 22 22 22 21 27 34 37 41 42 43 44 44 42 41 40 43 42 40 37 36 36 31 29 27 29 29 31 29 26 25 25 24 23 23
11 11 8 7 4 11 1 12 8 12 14 15 16 21 22 22 24 23 19 30 35 32 35 38 39 39 37 39 38 38 39 41 40 38 38 37 35 32 28 28 28 29 32 31 29 29 27 26 25
24 8 7 13 13 1 3 12 4 11 13 19 19 18 20 20 26 23 21 26 30 33 32 36 37 37 39 40 40 39 39 41 37 40 40 39 36 33 31 29 29 30 30 32 33 32 32 30 29
Wind_Direction
165 159 155 182 203 194 246 233 30 133 199 210 160 186 139 28 123 183 150 143 144 144 144 140 138 132 128 127 120 118 118 117 119 119 119 120 122 123 119 117 116 115 115 114 107 104 98 99 108
166 150 182 277 210 295 277 354 212 193 214 132 108 128 63 89 92 122 125 146 145 145 145 141 139 136 130 126 122 119 119 118 119 118 119 121 119 119 119 122 121 118 114 109 103 98 98 102 107
163 168 286 226 132 171 281 235 263 257 178 166 110 51 82 85 117 139 145 147 145 145 145 143 142 137 134 129 126 124 121 120 116 121 119 122 118 116 116 115 114 113 114 108 100 101 100 105 107
163 222 230 235 246 199 223 81 279 231 65 54 111 78 81 110 137 147 146 145 144 146 145 148 141 140 136 132 128 129 126 125 122 123 121 119 115 115 115 116 113 109 109 103 102 104 105 105 98
255 266 244 246 309 5 359 343 232 196 71 101 74 82 97 120 124 140 147 147 144 146 147 148 146 144 138 134 132 133 130 128 127 122 121 121 118 116 119 117 113 108 101 97 101 107 111 109 112
176 307 319 336 309 331 342 42 304 226 98 108 107 105 98 140 139 148 150 150 148 146 150 151 149 146 139 143 138 137 134 132 129 128 124 122 122 121 121 119 114 108 103 95 94 103 115 116 109
208 123 213 204 283 355 0 352 185 129 145 151 146 94 117 150 149 151 154 154 151 149 152 154 151 148 148 146 144 141 141 135 131 129 127 131 128 124 122 120 115 110 103 97 91 92 96 120 112
115 119 235 267 315 84 354 339 275 148 123 125 148 161 161 165 152 153 156 158 158 155 159 156 157 158 156 151 149 148 147 141 138 134 135 136 129 126 125 125 121 113 103 96 91 88 91 98 115
150 105 236 229 183 158 328 348 159 65 153 181 124 135 144 154 150 150 154 160 163 166 164 162 164 166 160 155 155 154 152 147 140 138 142 145 145 143 134 126 120 115 103 92 82 80 88 108 119
189 185 214 216 159 134 28 320 291 132 161 64 77 106 138 151 154 156 159 161 164 170 172 171 172 171 167 164 161 161 158 158 149 148 146 147 150 148 139 137 125 117 119 111 94 94 99 102 129
200 209 168 224 151 137 170 213 182 168 215 194 151 144 151 156 161 162 165 167 170 174 175 178 179 178 175 174 170 167 168 168 164 166 164 164 166 163 158 153 143 136 128 113 103 89 85 100 131
254 236 227 210 201 192 184 200 193 195 247 152 156 155 154 161 165 167 169 169 172 176 181 181 185 185 184 183 179 173 178 177 172 172 179 180 181 179 173 171 172 163 128 113 81 73 91 66 33
234 256 258 239 262 244 186 189 179 203 118 137 147 157 162 163 166 168 171 172 174 178 184 185 189 191 189 190 187 184 185 182 182 181 174 187 189 190 182 179 189 186 201 244 66 60 61 85 103
190 244 257 269 261 206 209 183 119 62 136 148 156 165 169 172 170 168 166 175 177 182 187 188 192 194 192 193 191 188 190 189 192 197 198 187 197 210 189 183 188 190 203 220 321 55 108 106 138
252 279 297 269 259 234 188 150 207 147 148 156 165 168 173 177 176 178 174 179 182 187 189 190 193 196 197 196 195 196 199 207 214 217 213 209 201 200 195 195 179 169 158 143 136 100 127 126 116
181 158 204 248 209 206 165 211 149 154 152 164 170 173 178 185 182 182 182 182 186 187 190 193 194 198 199 202 201 203 210 220 235 230 219 215 207 194 197 192 190 168 145 157 199 267 99 137 111
296 210 183 278 197 180 197 139 163 164 165 168 176 179 183 187 191 190 185 181 189 192 194 196 198 200 200 204 209 212 222 235 239 225 218 211 203 197 203 194 194 189 190 186 218 231 226 210 177
202 204 212 216 218 196 211 181 168 174 177 175 181 186 191 195 196 188 191 189 187 195 200 200 203 206 204 206 211 214 210 209 209 214 209 206 203 201 197 190 197 190 204 170 194 137 108 156 162
187 203 215 250 198 174 208 200 180 181 177 186 187 193 198 201 197 197 193 193 192 195 201 202 204 210 209 210 212 208 201 199 199 204 217 206 207 203 202 196 200 202 215 187 167 167 175 145 161
244 245 250 286 212 178 251 215 189 182 191 191 188 195 201 199 202 202 197 194 197 196 198 201 207 209 213 211 212 209 211 209 211 207 199 207 211 213 214 210 212 208 208 202 182 172 151 131 146
221 223 221 235 57 215 138 255 194 203 199 193 208 206 201 202 201 200 200 197 195 197 198 200 205 208 213 212 210 213 219 219 216 213 205 207 218 222 219 218 219 225 223 213 201 194 180 161 155
220 212 225 244 135 218 162 236 212 186 198 201 204 209 205 209 211 203 203 200 198 198 201 202 205 205 209 209 210 211 214 216 223 224 217 214 221 222 222 223 223 222 212 217 220 211 206 193 174
230 167 204 237 200 298 237 114 244 188 202 206 206 214 207 208 208 203 205 200 201 197 196 202 204 204 205 207 208 213 214 221 224 228 226 223 222 220 223 225 227 222 227 225 221 220 215 205 200
164 169 194 130 131 253 240 178 237 198 208 210 210 214 208 209 205 207 209 202 198 196 192 197 197 203 203 206 207 213 216 218 218 222 221 226 227 222 223 227 230 231 229 221 226 229 220 217 214
197 144 214 226 200 236 226 195 220 202 209 210 211 214 205 208 204 205 197 199 198 194 191 193 196 200 201 206 207 214 217 217 216 217 219 223 227 226 223 226 229 231 230 232 234 230 225 224 227
208 200 169 189 201 227 171 214 240 199 217 216 216 216 202 205 210 204 197 197 196 194 192 192 194 200 197 202 206 212 215 217 219 218 218 224 231 231 229 228 230 233 232 234 235 234 234 229 226
197 212 184 108 336 154 214 237 300 190 225 206 218 212 203 202 207 214 204 196 192 192 192 194 194 197 196 200 204 207 211 214 217 222 224 224 229 235 232 233 233 235 236 235 234 235 233 228 230
199 158 202 216 199 224 260 209 213 180 213 210 220 210 211 207 205 208 209 200 199 194 194 194 195 194 195 198 200 205 210 215 221 224 225 224 226 229 232 235 238 239 239 237 234 234 235 233 235
197 197 196 175 181 223 186 240 192 192 196 207 209 210 206 204 203 202 200 202 202 195 194 196 196 195 194 195 199 203 208 216 217 223 229 229 229 229 233 236 240 241 239 238 235 236 237 235 238
225 175 170 204 212 253 169 252 235 208 182 189 206 210 204 199 201 200 197 199 197 197 190 194 196 195 196 197 198 203 208 214 214 219 228 231 232 231 231 235 238 241 241 239 237 237 237 236 238
Height
777 780 783 784 792 795 794 780 768 777 778 758 757 766 776 784 786 807 795 798 803 807 811 814 816 818 819 820 823 824 826 825 826 827 827 828 829 829 830 831 833 833 834 835 836 837 837 838 838
777 781 784 778 793 804 790 775 774 767 763 759 762 767 777 791 785 791 795 801 804 808 812 815 818 819 821 822 823 825 827 828 829 830 831 831 832 832 833 834 835 836 836 838 839 839 840 840 840
778 779 782 781 793 797 791 775 770 760 756 756 766 766 779 788 787 793 795 800 805 809 813 817 819 820 822 824 825 827 828 829 830 831 833 834 834 835 836 837 837 838 839 839 840 841 841 842 841
778 780 780 788 787 777 771 765 764 757 760 758 765 780 782 783 788 791 797 801 805 810 814 818 820 822 824 826 827 829 831 831 833 834 835 836 837 837 838 839 840 841 841 842 842 842 843 844 844
777 777 787 789 784 768 764 760 758 766 765 763 764 787 790 792 791 795 799 804 807 812 816 819 822 824 825 827 829 831 833 834 835 836 837 838 839 839 840 841 842 843 843 844 844 844 845 846 846
779 780 790 792 787 769 764 763 760 758 767 769 776 783 794 794 795 799 802 806 810 812 817 820 823 825 827 828 830 832 835 836 838 839 840 841 841 842 843 843 844 845 845 845 846 847 847 848 848
779 786 791 789 783 773 767 757 761 766 771 772 767 789 794 796 798 801 805 809 812 815 818 821 824 827 828 830 832 834 836 838 840 841 842 842 842 843 844 845 846 846 847 847 848 848 849 849 850
775 782 785 779 785 782 766 766 761 764 770 762 766 789 793 792 798 803 807 811 814 816 819 822 825 827 828 831 833 835 838 839 840 842 843 844 845 845 846 847 848 848 849 850 850 850 851 852 851
767 790 792 781 778 778 764 768 756 757 764 761 762 771 778 789 798 805 808 812 815 818 820 823 825 827 829 831 834 836 839 841 842 843 844 845 846 847 848 848 850 851 851 851 852 853 853 853 854
772 792 778 759 764 767 764 767 759 768 765 770 773 773 783 791 797 802 806 810 813 817 820 823 825 827 830 832 834 836 840 841 843 845 846 847 848 849 849 849 850 853 852 853 854 854 854 853 854
765 779 759 754 749 751 761 763 761 767 773 765 771 777 781 789 796 801 807 809 810 814 819 822 825 828 830 832 834 837 840 841 843 845 847 848 849 850 850 851 851 852 852 853 855 855 854 853 853
770 751 753 748 747 754 761 754 759 763 758 753 763 769 774 784 792 797 803 806 809 813 817 821 824 827 830 832 834 837 839 842 844 846 847 848 849 850 850 852 852 853 853 854 854 856 855 854 853
762 750 747 749 748 747 746 754 755 757 753 758 767 774 779 784 790 796 802 807 808 811 815 819 822 826 829 832 834 836 839 842 844 846 847 849 850 850 851 852 853 854 853 854 855 856 856 856 855
745 749 748 745 742 742 746 752 750 753 757 765 769 774 778 782 786 793 798 803 805 808 812 817 821 825 829 831 833 836 839 842 844 846 848 849 850 851 851 852 853 854 854 854 855 856 857 857 857
748 761 752 744 739 743 737 759 757 754 760 768 771 776 780 783 787 790 795 798 801 805 810 815 819 823 827 830 833 836 839 842 843 845 847 849 850 851 851 852 853 854 855 855 855 857 858 859 859
750 759 777 744 740 737 741 770 756 752 757 769 774 775 778 779 781 787 793 797 800 804 808 813 817 821 825 828 832 835 839 841 842 844 846 849 850 851 852 852 854 855 856 856 857 857 857 859 860
761 776 767 754 733 738 742 758 755 753 757 764 769 772 775 779 781 783 786 792 797 801 805 810 814 818 822 826 831 835 838 839 839 841 845 848 850 851 852 852 854 855 856 857 857 858 858 858 860
774 768 758 758 739 735 747 748 752 750 756 760 764 766 770 772 770 775 783 788 793 798 802 807 812 816 820 824 829 833 836 838 839 840 843 847 849 851 852 853 853 854 856 858 858 857 858 858 859
749 753 753 739 732 741 745 744 751 748 756 763 762 762 765 767 772 777 778 784 790 795 799 803 808 812 817 822 826 830 832 836 838 840 842 846 849 851 852 853 854 854 855 857 858 859 859 859 860
753 758 756 737 730 738 742 743 739 745 744 746 750 755 760 765 768 772 775 777 784 788 793 799 803 808 813 818 822 826 830 833 837 839 840 844 848 850 851 852 853 854 856 857 858 859 860 860 862
751 756 755 750 736 731 740 749 738 741 745 751 751 747 753 755 758 762 767 769 777 783 786 792 797 803 808 814 820 824 828 831 834 837 840 843 846 848 850 851 852 854 855 856 858 859 860 861 862
757 735 739 743 750 774 735 778 754 747 749 747 746 747 747 751 754 757 761 765 767 773 782 787 793 798 804 810 815 819 822 826 830 833 838 841 844 846 849 851 852 853 855 856 858 859 861 861 862
733 729 738 740 753 755 750 766 753 736 751 743 737 733 737 741 745 749 751 754 759 769 775 782 787 794 798 804 809 815 819 821 826 831 835 839 842 844 846 849 850 852 854 856 857 859 860 862 862
716 729 737 741 759 769 745 760 760 740 735 731 726 723 725 727 734 739 744 750 755 762 768 776 781 786 793 798 805 809 813 817 822 827 831 836 839 841 843 846 849 851 852 854 856 858 859 861 862
720 745 781 783 782 754 733 754 732 717 709 710 714 711 712 718 725 729 737 742 747 753 759 768 774 780 786 793 799 804 808 813 816 822 827 831 834 837 840 843 846 848 851 853 855 856 858 860 861
719 730 765 784 771 748 737 747 728 699 692 691 693 693 708 719 719 719 723 730 737 743 751 758 766 774 780 786 791 798 803 808 813 817 822 826 829 833 837 840 843 845 848 850 852 854 857 858 859
714 720 719 749 751 754 723 723 701 691 690 689 688 694 702 708 713 715 714 721 729 736 741 748 757 765 773 778 786 792 798 803 807 812 817 821 826 830 834 837 839 842 844 847 850 851 853 855 856
690 699 733 744 760 760 739 725 719 703 699 692 688 690 691 692 700 705 711 715 721 727 734 742 749 756 763 772 779 786 791 797 802 807 811 816 821 826 830 833 835 837 840 843 846 848 850 852 852
691 697 699 715 738 736 751 710 687 689 686 685 679 673 678 683 687 692 699 705 712 723 731 738 745 753 760 766 773 780 785 790 796 801 806 811 817 822 825 828 830 832 834 838 841 843 846 848 849
671 691 702 705 728 735 736 705 659 666 671 667 665 664 666 669 672 679 687 696 706 714 723 730 738 746 752 758 765 772 778 783 790 794 799 805 811 817 820 824 825 828 830 832 835 838 841 843 845